THORAD AGENA D DEB, 4643

Orbit data source: Space-Track

THORAD AGENA D DEB, 4643 is space debris in SSO originally from a launch on Wed, 08 Apr 1970 UTC launched from the Air Force Western Test Range (AFWTR). Debris objects in space refer to the collection of defunct objects orbiting the Earth. Examples of debris include non-operational satellites, rocket bodies, and fragments generated from explosions, collisions, or faulty payload assembly.

Loading next visibility...
Identifier
4643, 1970-025AB
Orbit
SSO
Country
Flag of USUS
Related business
Manufacturer
Unknown
Mission
Spacecraft
Bus & Motor
Unknown
Mass
Unknown
Launch date (UTC)
1970-04-08 (55 years ago)
Launch vehicle
Unknown
Launch site
Air Force Western Test Range (AFWTR)
Object type
Payload
Rocket body
Debris
Shape & HBR
Unknown
Radar Cross Section
Small (<0.1 m²)

Expand to show TLE details & history
Last TLE update: 13 hours ago

TLE from 13 hours ago
0 THORAD AGENA D DEB
1 04643U 70025AB  25260.08005150  .00000133  00000-0  25367-3 0  9998
2 04643  99.4185 116.4492 0010175 186.4245 326.6196 13.55123471734814
Epoch: 2025-09-17T01:55Z
TLE epoch observation values (Epoch: 2025-09-17T01:55:16.449Z)
Latitude
26.66336°
Longitude
-83.87709°
Altitude
1,050.306 km
Speed
7.332 km/s
True Right ascension
20h 04m 48s
True Declination
26° 31' 52"
Sunlit
Object was in partial shadow at epoch
Visualization orbit readout
Latitude
Unknown
Longitude
Unknown
Altitude
Unknown
Speed
Unknown
Apparent Right ascension
Unknown
Apparent Declination
Unknown
Sunlit
N/A
Visualization observer readout
Local Sidereal Time
08:02:52
Azimuth
Unknown
Elevation
Unknown
Doppler factor
Unknown
Orbital elements
Apogee altitude
1,058.307 km
Perigee altitude
1,043.189 km
Semi-major axis
7,428.885 km
Eccentricity
0.00102
Inclination
99.4185°
RAAN
116.4492°
Arg. of periapsis
186.4245°
True anomaly
326.55538°
Mean anomaly
326.6196°
Eccentric anomaly
326.5875°
Mean motion
3.38967 °/min
Orbital period
106.2 mins
BSTAR
0.00025367
Loading maneuver chart data...
Computing Atmospheric mass density...

Documentation

Showing up to 5 results
|